Location: Fort Wayne
(41.1310°N, 85.1290°W)
Time: 22:08:43
(UTC-05:00)

Meteor 2-9 Rocket - Visible Passes

Search period start: 02 March 2015 00:00
Search period end: 12 March 2015 01:00
Orbit: 792 x 895 km, 81.3° (Epoch: 02 March)

Date Brightness Start Highest point End Pass type
(mag) Time Alt. Az. Time Alt. Az. Time Alt. Az.
02 Mar 7.0 06:38:45 10° NNE 06:41:52 15° ENE 06:45:12 10° E visible
02 Mar 6.1 19:53:37 13° NE 19:53:37 13° NE 19:54:35 10° NE visible
02 Mar 5.6 21:35:21 34° NNW 21:35:21 34° NNW 21:38:39 10° N visible
03 Mar 7.1 06:25:07 10° NNE 06:27:43 14° ENE 06:30:32 10° E visible
03 Mar 5.7 19:36:59 17° E 19:36:59 17° E 19:40:14 10° NE visible
03 Mar 4.5 21:18:31 66° W 21:18:48 67° WNW 21:24:39 10° N visible
04 Mar 7.3 06:11:41 10° NE 06:13:32 12° ENE 06:15:41 10° E visible
04 Mar 5.8 19:19:41 10° ESE 19:22:35 15° E 19:25:48 10° NE visible
04 Mar 4.4 20:58:54 10° SSW 21:04:46 76° W 21:10:39 10° N visible
04 Mar 7.2 22:47:21 10° WNW 22:48:45 11° WNW 22:49:45 10° NW visible
05 Mar 7.5 05:58:49 10° NE 05:59:21 10° ENE 06:00:15 10° ENE visible
05 Mar 5.9 19:06:24 10° ESE 19:08:38 13° E 19:11:13 10° ENE visible
05 Mar 4.3 20:44:51 10° S 20:50:44 85° W 20:56:37 10° N visible
05 Mar 7.1 22:32:10 10° W 22:34:35 12° WNW 22:36:38 10° NW visible
06 Mar 4.2 20:30:50 10° S 20:36:42 86° E 20:42:35 10° N visible
06 Mar 7.0 22:17:22 10° W 22:20:25 14° WNW 22:23:08 10° NNW visible
07 Mar 4.2 20:16:50 10° S 20:22:41 77° E 20:28:32 10° NNE visible
07 Mar 7.0 22:02:44 10° W 22:06:15 16° WNW 22:09:30 10° NNW visible
08 Mar 4.2 21:02:51 10° S 21:08:40 68° E 21:14:28 10° NNE visible
08 Mar 6.9 22:48:12 10° WSW 22:52:07 17° WNW 22:55:46 10° NNW visible
09 Mar 4.3 20:48:55 10° S 20:54:39 60° E 21:00:23 10° NNE visible
09 Mar 6.7 22:33:44 10° WSW 22:37:58 20° WNW 22:42:00 10° NNW visible
10 Mar 5.7 07:27:45 10° N 07:32:59 42° ENE 07:38:05 10° SE visible
10 Mar 4.4 20:34:59 10° S 20:40:38 53° E 20:46:18 10° NNE visible
10 Mar 6.6 22:19:19 10° WSW 22:23:51 22° WNW 22:28:11 10° NNW visible
11 Mar 5.9 07:13:49 10° N 07:18:53 37° ENE 07:23:52 10° SE visible
11 Mar 4.5 20:21:06 10° SSE 20:26:38 47° E 20:32:11 10° NNE visible
11 Mar 6.5 22:04:57 10° WSW 22:09:43 25° WNW 22:14:19 10° NNW visible
